Location: Palo Alto
(37.4420°N, 122.1420°W)
Time: 19:47:01
(UTC-07:00)

ISS - All Passes

Search period start: 20 April 2014 00:00
Search period end: 30 April 2014 00:00
Orbit: 414 x 419 km, 51.6° (Epoch: 20 April)

Date Brightness Start Highest point End Pass type
(mag) Time Alt. Az. Time Alt. Az. Time Alt. Az.
20 Apr - 15:05:12 10° SW 15:08:31 78° SE 15:11:52 10° NE daylight
20 Apr - 16:43:24 10° WNW 16:45:37 16° NNW 16:47:49 10° NNE daylight
20 Apr - 20:00:46 10° N 20:01:38 11° NNE 20:02:29 10° NNE daylight
20 Apr - 21:35:52 10° NW 21:39:05 42° NE 21:42:17 10° ESE visible
20 Apr - 23:13:15 10° W 23:15:35 18° SW 23:17:55 10° S visible
21 Apr - 14:16:56 10° SSW 14:20:03 39° SE 14:23:13 10° ENE daylight
21 Apr - 15:54:09 10° W 15:56:53 23° NNW 15:59:38 10° NNE daylight
21 Apr - 20:47:32 10° NNW 20:50:26 26° NNE 20:53:19 10° E visible
21 Apr - 22:24:08 10° WNW 22:27:10 32° SW 22:30:12 10° SSE visible
22 Apr - 13:29:00 10° S 13:31:35 21° SE 13:34:12 10° E daylight
22 Apr - 15:05:04 10° WSW 15:08:09 35° NW 15:11:17 10° NE daylight
22 Apr - 19:59:14 10° NNW 20:01:39 18° NNE 20:04:03 10° ENE daylight
22 Apr - 21:35:19 10° NW 21:38:38 62° SW 21:41:56 10° SE visible
23 Apr - 12:41:53 10° SSE 12:43:07 12° SE 12:44:20 10° ESE daylight
23 Apr - 14:16:08 10° WSW 14:19:26 62° NW 14:22:45 10° NE daylight
23 Apr - 15:55:08 10° NW 15:56:43 13° NNW 15:58:17 10° N daylight
23 Apr - 19:11:01 10° N 19:12:44 13° NNE 19:14:26 10° NE daylight
23 Apr - 20:46:37 10° NW 20:49:58 69° NE 20:53:17 10° ESE visible
23 Apr - 22:25:31 10° WSW 22:26:15 11° SW 22:26:59 10° SW visible
24 Apr - 13:27:24 10° SW 13:30:42 69° SE 13:34:01 10° NE daylight
24 Apr - 15:05:26 10° WNW 15:07:43 17° NNW 15:10:01 10° NNE daylight
24 Apr - 18:23:12 10° N 18:23:41 10° NNE 18:24:10 10° NNE daylight
24 Apr - 19:58:00 10° NW 20:01:10 38° NE 20:04:18 10° ESE daylight
24 Apr - 21:35:11 10° W 21:37:41 20° SW 21:40:10 10° S visible
25 Apr - 12:38:55 10° SSW 12:41:58 35° SE 12:45:03 10° ENE daylight
25 Apr - 14:15:56 10° W 14:18:44 25° NNW 14:21:33 10° NNE daylight
25 Apr - 19:09:25 10° NNW 19:12:13 24° NNE 19:15:01 10° E daylight
25 Apr - 20:45:53 10° WNW 20:48:59 36° SW 20:52:04 10° SSE visible
26 Apr - 11:50:49 10° S 11:53:14 19° SE 11:55:40 10° E daylight
26 Apr - 13:26:36 10° WSW 13:29:44 39° NW 13:32:54 10° NE daylight
26 Apr - 15:06:39 10° NNW 15:07:12 10° NNW 15:07:44 10° N daylight
26 Apr - 18:20:52 10° NNW 18:23:08 17° NNE 18:25:24 10° ENE daylight
26 Apr - 19:56:50 10° NW 20:00:09 71° SW 20:03:28 10° SE daylight
27 Apr - 11:04:10 10° SE 11:04:30 10° SE 11:04:49 10° ESE daylight
27 Apr - 12:37:26 10° SW 12:40:45 71° NW 12:44:04 10° NE daylight
27 Apr - 14:16:13 10° NW 14:17:57 13° NNW 14:19:41 10° N daylight
27 Apr - 17:32:24 10° N 17:33:56 13° NNE 17:35:27 10° NE daylight
27 Apr - 19:07:53 10° NW 19:11:12 60° NE 19:14:29 10° ESE daylight
27 Apr - 20:46:09 10° WSW 20:47:30 12° SW 20:48:52 10° SSW visible
28 Apr - 11:48:29 10° SW 11:51:45 60° SE 11:55:02 10° ENE daylight
28 Apr - 13:26:17 10° WNW 13:28:42 18° NNW 13:31:07 10° NNE daylight
28 Apr - 18:19:00 10° NW 18:22:06 34° NNE 18:25:10 10° E daylight
28 Apr - 19:56:00 10° WNW 19:58:39 22° SW 20:01:18 10° S daylight
29 Apr - 10:59:48 10° SSW 11:02:45 30° SE 11:05:43 10° ENE daylight
29 Apr - 12:36:33 10° W 12:39:26 27° NNW 12:42:20 10° NNE daylight
29 Apr - 17:30:10 10° NNW 17:32:51 22° NNE 17:35:32 10° E daylight
29 Apr - 19:06:30 10° WNW 19:09:40 42° SW 19:12:49 10° SSE daylight
